Hourly Data Report for May 02, 2017

TORONTO CITY
ONTARIO

43°40'00.000" N
79°24'00.000" W
112.50 m
6158355
71508
XTO

Download Data

Hourly Data (May 2017)
Hourly Data Report for May 2, 2017
TIME
LST
Temp Definition
°C
Dew Point Definition
°C
Rel Hum Definition
%
Precip. Amount Definition
mm

Wind Dir Definition
10's deg

Wind Spd Definition
km/h
Visibility Definition
km
Stn Press Definition
kPa
Hmdx Definition


Wind Chill Definition


Weather Definition


00:00 11.1 8.0 81 0.0 LegendMM LegendMM   98.59     LegendNANA
01:00 10.3 6.8 79 0.0 LegendMM LegendMM   98.61     LegendNANA
02:00 10.7 6.4 75 0.0 LegendMM LegendMM   98.64     LegendNANA
03:00 9.7 5.9 77 0.0 LegendMM LegendMM   98.63     LegendNANA
04:00 9.4 6.3 81 0.0 LegendMM LegendMM   98.65     LegendNANA
05:00 9.3 6.0 80 0.0 LegendMM LegendMM   98.65     LegendNANA
06:00 9.5 6.0 79 0.0 LegendMM LegendMM   98.63     LegendNANA
07:00 9.7 6.0 78 0.0 LegendMM LegendMM   98.61     LegendNANA
08:00 9.8 5.8 76 0.0 LegendMM LegendMM   98.60     LegendNANA
09:00 9.4 6.9 85 0.0 LegendMM LegendMM   98.58     LegendNANA
10:00 9.0 7.0 87 0.2 LegendMM LegendMM   98.55     LegendNANA
11:00 9.3 6.6 84 0.0 LegendMM LegendMM   98.51     LegendNANA
12:00 9.3 5.1 75 0.2 LegendMM LegendMM   98.52     LegendNANA
13:00 10.0 4.8 70 0.0 LegendMM LegendMM   98.50     LegendNANA
14:00 9.4 4.4 71 0.3 LegendMM LegendMM   98.61     LegendNANA
15:00 10.1 3.7 64 0.0 LegendMM LegendMM   98.71     LegendNANA
16:00 9.8 4.2 68 0.0 LegendMM LegendMM   98.78     LegendNANA
17:00 9.0 4.9 75 0.0 LegendMM LegendMM   98.91     LegendNANA
18:00 9.5 4.8 72 0.0 LegendMM LegendMM   98.94     LegendNANA
19:00 9.7 4.6 70 0.0 LegendMM LegendMM   99.00     LegendNANA
20:00 9.4 4.0 69 0.0 LegendMM LegendMM   99.10     LegendNANA
21:00 8.9 3.5 69 0.0 LegendMM LegendMM   99.22     LegendNANA
22:00 7.9 1.8 65 0.0 LegendMM LegendMM   99.29     LegendNANA
23:00 7.3 1.8 68 0.0 LegendMM LegendMM   99.33     LegendNANA

Notes on Data Quality.

Legend

  • E = Estimated
  • M = Missing
  • NA = Not Available*
  • [empty] = Indicates an unobserved value
Date modified: